Kosmos-2194

operational
NORAD ID: 21983 Int'l Des: 1992-030 Owner: VVSR Country: RU
LEOCIRCULAR

Über Kosmos-2194

Beschreibung wird geladen...

Live-Position

3D-Globus wird geladen...

Nächste Überflüge

Höhenverlauf

Altitude vs Time

uPlot chart will show altitude changes over time

Zweizeiliger Elementsatz

1 21983U 92030H 26063.14650388 .00000016 00000-0 21381-3 0 9994
2 21983 74.0009 113.8206 0015992 71.1271 317.5459 12.48474227538204
Epoch: 4. März 2026 • Age: 18 hours

Aktueller Status

Höhe 1481.1 km
Geschwindigkeit 7.12 km/s
Subsatellitenpunkt -9.35°S, 134.32°W
Startdatum 3. Juni 1992
Alter 33.7 years
Typ other

Technische Details

Klassifizierung Payload
Masse 60.00 kg
Trockenmasse 60.00 kg
Gesamtmasse 60.00 kg
Länge 0.80 m
Durchmesser 0.80 m
Spannweite 0.80 m
Form Poly
Hersteller NPOPM
Bus-Typ Strela-1 11F625
Phasenstatus In Orbit
Besitzer/Staat VVSR/RU

Große Konstellationen

Loading constellations...